Jonesboro, AR

3:57 PM CDT on August 22, 2017 (GMT -0500)
Jonesboro Municipal

Weather History for KJBR - September, 2013

Change the Weather History Date:

Thursday, September 19, 2013

  Actual Average Record
Temperature  
Mean Temperature 83 °F 71 °F  
Max Temperature 94 °F 82 °F 101 °F (1921)
Min Temperature 71 °F 59 °F 41 °F (1981)
Degree Days  
Heating Degree Days 0 1  
Month to date heating degree days 0 2  
Since 1 July heating degree days 0 2  
Cooling Degree Days 18 6  
Month to date cooling degree days 272 173  
Year to date cooling degree days 1872 1719  
Growing Degree Days 32 (Base 50)    
Moisture  
Dew Point 69 °F    
Average Humidity 67    
Maximum Humidity 90    
Minimum Humidity 44    
Precipitation  
Precipitation 0.00 in 0.09 in 5.40 in (1970)
Month to date precipitation 0.24 1.86  
Year to date precipitation 37.69 32.97  
Snow  
Snow 0.00 in 0.00 in - ()
Month to date snowfall 0.0 0.0  
Since 1 July snowfall 0.0 0.0  
Since 1 September snowfall 0.0 0.0  
Snow Depth 0.00 in    
Sea Level Pressure  
Sea Level Pressure 30.00 in    
Wind  
Wind Speed 8 mph (South)    
Max Wind Speed 18 mph    
Max Gust Speed 24 mph    
Visibility 9 miles    
Events      
T = Trace of Precipitation, MM = Missing Value Source: NWS Daily Summary

Daily Weather History Graph

Daily Weather History Graph

Search for Another Location

Airport or City:

Trip Planner

Search our weather history database for the weather conditions in past years. The results will help you decide how hot, cold, wet, or windy it might be!

Date:

Astronomy

Sep. 19, 2013 Rise Set
Actual Time 6:48 AM CDT 7:03 PM CDT
Civil Twilight 6:22 AM CDT 7:29 PM CDT
Nautical Twilight 5:52 AM CDT 7:58 PM CDT
Astronomical Twilight 5:22 AM CDT 8:29 PM CDT
Moon 7:04 PM CDT (9/19) 6:56 AM CDT (9/19)
Length of Visible Light 13h 06m
Length of Day
12h 15m
Full, 100% of the Moon is Illuminated
Sep 19
Full
Sep 26
Last Quarter
Oct 4
New
Oct 11
First Quarter
Oct 18
Full

Hourly Weather History & Observations

Time (CDT) Temp. Heat Index Dew Point Humidity Pressure Visibility Wind Dir Wind Speed Gust Speed Precip Events Conditions
12:53 AM 77.0 °F - 69.1 °F 76% 30.01 in 10.0 mi South 8.1 mph - N/A   Clear
1:53 AM 75.0 °F - 69.1 °F 82% 30.01 in 9.0 mi South 4.6 mph - N/A   Clear
2:53 AM 73.9 °F - 69.1 °F 85% 30.02 in 8.0 mi Calm Calm - N/A   Clear
3:53 AM 73.9 °F - 69.1 °F 85% 30.02 in 8.0 mi Calm Calm - N/A   Clear
4:53 AM 72.0 °F - 68.0 °F 87% 30.02 in 7.0 mi South 3.5 mph - N/A   Clear
5:53 AM 72.0 °F - 68.0 °F 87% 30.03 in 7.0 mi South 4.6 mph - N/A   Clear
6:53 AM 72.0 °F - 68.0 °F 87% 30.04 in 6.0 mi South 3.5 mph - N/A   Clear
7:53 AM 73.9 °F - 69.1 °F 85% 30.05 in 7.0 mi South 9.2 mph - N/A   Clear
8:53 AM 79.0 °F - 70.0 °F 74% 30.06 in 10.0 mi South 10.4 mph - N/A   Clear
9:53 AM 84.0 °F 89.0 °F 71.1 °F 65% 30.06 in 10.0 mi SSW 17.3 mph 23.0 mph N/A   Clear
10:53 AM 87.1 °F 92.8 °F 71.1 °F 59% 30.06 in 10.0 mi SSW 15.0 mph - N/A   Clear
11:53 AM 89.1 °F 95.0 °F 71.1 °F 55% 30.04 in 10.0 mi SSW 15.0 mph 20.7 mph N/A   Clear
12:53 PM 91.0 °F 98.2 °F 72.0 °F 53% 30.02 in 10.0 mi SW 8.1 mph 17.3 mph N/A   Scattered Clouds
1:53 PM 93.0 °F 100.1 °F 71.1 °F 49% 30.01 in 10.0 mi SW 13.8 mph 19.6 mph N/A   Clear
2:53 PM 93.0 °F 100.1 °F 71.1 °F 49% 29.98 in 10.0 mi SSW 10.4 mph - N/A   Partly Cloudy
3:53 PM 93.9 °F 99.1 °F 69.1 °F 44% 29.95 in 10.0 mi South 9.2 mph - N/A   Clear
4:53 PM 91.9 °F 94.5 °F 66.0 °F 42% 29.94 in 10.0 mi South 10.4 mph - N/A   Partly Cloudy
5:53 PM 90.0 °F 91.7 °F 64.9 °F 43% 29.94 in 10.0 mi South 10.4 mph - N/A   Clear
6:53 PM 87.1 °F 89.9 °F 66.9 °F 51% 29.93 in 10.0 mi SSE 5.8 mph - N/A   Clear
7:53 PM 82.9 °F 85.8 °F 68.0 °F 60% 29.92 in 10.0 mi SSE 5.8 mph - N/A   Clear
8:53 PM 80.1 °F 82.7 °F 68.0 °F 67% 29.94 in 10.0 mi SSE 3.5 mph - N/A   Clear
9:53 PM 80.1 °F 82.9 °F 69.1 °F 69% 29.95 in 10.0 mi South 4.6 mph - N/A   Clear
10:53 PM 79.0 °F - 69.1 °F 72% 29.96 in 10.0 mi Calm Calm - N/A   Clear
11:53 PM 79.0 °F - 68.0 °F 69% 29.94 in 10.0 mi South 8.1 mph - N/A   Clear